This demonstration page uses our WeatherBlox Daily Observations layout. Learn more.

Left ArrowRight Arrow

Hourly Observations for June 12, 2020

Temp ( °F °C ) Dew Point ( °F °C ) Humidity (%) Winds ( mph kmh ) Pressure ( in mb ) Visibility ( mi km ) Precip ( " mm )
12:53 am 00:53 Clear 62 16.7 46 7.8 56 56 NE 8 13 30.04 1017 10 16 N/A
1:53 am 01:53 Clear 62 16.7 46 7.8 56 56 ENE 10 17 30.04 1017 10 16 N/A
2:53 am 02:53 Clear 61 16.1 47 8.3 60 60 ENE 12 19 30.03 1017 10 16 N/A
3:53 am 03:53 Clear 60 15.6 47 8.3 62 62 E 9 15 30.02 1017 10 16 N/A
4:53 am 04:53 Clear 57 13.9 48 8.9 72 72 ENE 10 17 30.02 1017 10 16 N/A
5:53 am 05:53 Mostly Sunny 58 14.4 48 8.9 70 70 E 8 13 30.03 1017 10 16 N/A
6:53 am 06:53 Sunny 58 14.4 49 9.4 72 72 WNW 10 17 30.06 1018 10 16 N/A
7:53 am 07:53 Sunny 62 16.7 50 10 65 65 SE 9 15 30.05 1018 10 16 N/A
9:53 am 09:53 Sunny 76 24.4 50 10 40 40 ESE 9 15 29.98 1015 10 16 N/A
10:53 am 10:53 Sunny 81 27.2 50 10 34 34 E 18 30 29.95 1014 10 16 N/A
11:53 am 11:53 Sunny 86 30 47 8.3 26 26 ESE 16 26 29.93 1014 10 16 N/A
12:53 pm 12:53 Sunny 83 28.3 47 8.3 28 28 ESE 18 30 29.92 1013 10 16 N/A
1:53 pm 13:53 Sunny 88 31.1 52 11.1 29 29 E 20 31 29.88 1012 10 16 N/A
2:53 pm 14:53 Sunny 90 32.2 48 8.9 24 24 ESE 23 37 29.85 1011 10 16 N/A
3:53 pm 15:53 Sunny 91 32.8 49 9.4 24 24 SE 15 24 29.82 1010 10 16 N/A
4:53 pm 16:53 Sunny 90 32.2 52 11.1 27 27 SE 28 44 29.79 1009 10 16 N/A
5:53 pm 17:53 Sunny 90 32.2 50 10 25 25 SE 20 31 29.78 1008 10 16 N/A
6:53 pm 18:53 Sunny 88 31.1 50 10 27 27 SSE 24 39 29.73 1007 10 16 N/A
7:53 pm 19:53 Sunny 86 30 47 8.3 26 26 SSE 24 39 29.73 1007 10 16 N/A
8:53 pm 20:53 Sunny 83 28.3 50 10 32 32 SSE 18 30 29.61 1003 10 16 N/A
9:53 pm 21:53 Clear 83 28.3 48 8.9 30 30 SE 23 37 29.70 1006 10 16 N/A
10:53 pm 22:53 Clear 82 27.8 47 8.3 29 29 SE 21 33 29.69 1005 10 16 N/A
11:53 pm 23:53 Clear 82 27.8 46 7.8 28 28 SE 16 26 29.67 1005 10 16 N/A

Powered by AerisWeather